Regional Weather Roundup
Issued by NWS

Home | Current Version | Previous Version | Graphics & Text | Print | Product List | Glossary On
Versions: 1 2 3 4 5 6 7 8 9 10 11 12 13 14 15 16 17 18 19 20 21 22 23 24
000
ASUS45 KTFX 191410
RWRMT
MONTANA REGIONAL WEATHER ROUNDUP
NATIONAL WEATHER SERVICE GREAT FALLS MT
800 AM MDT TUE SEP 19 2017

NOTE: "FAIR" INDICATES FEW OR NO CLOUDS BELOW 12000 FEET WITH NO
SIGNIFICANT WEATHER AND/OR OBSTRUCTIONS TO VISIBILITY.

MTZ001>007-043-191500-
WEST OF THE DIVIDE

CITY           SKY/WX    TMP DP  RH WIND       PRES   REMARKS
KALISPELL      CLOUDY    41  40  96 CALM      29.71S
MISSOULA       CLOUDY    41  40  96 SE5       29.75F
BUTTE          PTCLDY    34  32  92 CALM      29.74R
MULLAN PASS    SNOW      31  30  96 VRB5      29.70S VSB 1/4
ANACONDA         N/A     37  36  93 SW5       29.74R
DEER LODGE       N/A     36  34  93 CALM      29.76S
HAMILTON         N/A     39  37  93 CALM      29.75S
LIBBY            N/A     39  39 100 CALM      29.71R
$$

MTZ008-052>055-191500-
SOUTHWEST MONTANA

CITY           SKY/WX    TMP DP  RH WIND       PRES   REMARKS
BOZEMAN        CLOUDY    40  38  93 SW14      29.72R
DILLON         CLOUDY    36  31  82 W6        29.73R WCI  31
W YELLOWSTONE  CLOUDY    34  34 100 CALM      29.74R
ENNIS          CLOUDY    36  36 100 E7        29.79R WCI  30
THREE FORKS      N/A     42  37  82 CALM      29.74S
$$

MTZ009-010-012-014-046-048-049-054-191500-
EAST SLOPES AND CENTRAL MONTANA

CITY           SKY/WX    TMP DP  RH WIND       PRES   REMARKS
CUT BANK       PTCLDY    35  31  85 N7        29.63R WCI  29
GREAT FALLS    CLOUDY    42  33  70 SW10      29.64S
MALMSTROM AFB  CLOUDY    44  35  69 SW14      29.65S
HELENA         PTCLDY    46  33  60 W6        29.71R
BOWMANS CRNR     N/A     39  33  78 SW14      29.64F WCI  31
CHOTEAU          N/A     41  30  65 W6        29.65F
FAIRFIELD        N/A     39  31  75 W7        29.63F
POWER            N/A     38  33  82 SW6       29.63S
RAYNESFORD     MOCLDY    46  31  55 SW14G23   29.65R
ULM            MOCLDY    43  34  70 SW9       29.66S
$$

MTZ011-013-016-021-045-047-050-051-191500-
NORTH CENTRAL MONTANA

CITY           SKY/WX    TMP DP  RH WIND       PRES   REMARKS
HAVRE          CLOUDY    45  38  76 SW12      29.60R
LEWISTOWN      CLOUDY    44  36  73 W6        29.64R
N BAR RANCH    CLOUDY    43  34  70 W10       29.66R
CHINOOK          N/A     48  37  66 W14       29.57R
DENTON           N/A     46  35  64 W16       29.59R
GEYSER         MOCLDY    44  33  66 W12       29.63R
GRASS RANGE    CLOUDY    47  34  60 W20       29.60R
JUDITH GAP     CLOUDY    43  33  68 NW6       29.64R
WINIFRED       CLOUDY    45  37  73 W6        29.62R
$$

MTZ017>020-022>027-061-062-191500-
NORTHEAST MONTANA

CITY           SKY/WX    TMP DP  RH WIND       PRES   REMARKS
GLASGOW        CLOUDY    49  46  90 W10       29.51R
JORDAN           N/A     50  43  77 W9        29.56R
SIDNEY         CLOUDY    57  48  72 NW10      29.41F
WOLF POINT     CLOUDY    54  51  90 W8        29.48S
MALTA          CLOUDY    48  41  76 SW8       29.55R
PLENTYWOOD       N/A     55  52  88 CALM      29.41F
POPLAR           N/A     54  52  94 W7        29.46S
SCOBEY           N/A     51  45  80 SE3       29.47F
$$

MTZ028>42-056>058-191500-
SOUTHCENTRAL AND SOUTHEAST MONTANA

CITY           SKY/WX    TMP DP  RH WIND       PRES   REMARKS
BAKER          CLOUDY    56  45  66 W13       29.52R
BILLINGS       CLOUDY    46  41  82 NW13      29.64S
LIVINGSTON     LGT RAIN  39  37  92 VRB6      29.71R FOG
MILES CITY     CLOUDY    54  48  80 W13       29.56R
BIG TIMBER     CLOUDY    41  39  93 W15G21    29.69R
EKALAKA          N/A     52  46  79 W3        29.58R
HARLOWTON      CLOUDY    44  33  64 MISG      29.65R
$$

REGIONAL REPORTS...DAKOTAS

CITY           SKY/WX    TMP DP  RH WIND       PRES   REMARKS
WILLISTON      CLOUDY    58  51  78 VRB5      29.41F
MINOT          CLOUDY    59  57  93 SE24G36   29.48F
DICKINSON      LGT RAIN  59  50  72 SW8       29.44S
BEACH          PTSUNNY   55  46  71 W13       29.50R
CROSBY           N/A     54  48  82 E13       29.43F
TIOGA            N/A     59  59 100 SE16      29.43F
WATFORD CITY     N/A     57  52  82 S7G13     29.41R
BISMARCK       CLOUDY    63  47  55 SE22G31   29.51F
GRAND FORKS    FOG       60  60 100 SE16      29.72F VSB 1
FARGO          CLOUDY    62  62 100 SE15      29.74F FOG
BUFFALO SD       N/A     59  45  59 W8        29.46R
RAPID CITY     SUNNY     57  48  72 S7        29.54F
$$

REGIONAL REPORTS...WYOMING/IDAHO/WASHINGTON

CITY           SKY/WX    TMP DP  RH WIND       PRES   REMARKS
GILLETTE       CLOUDY    52  46  80 S6        29.62R
SHERIDAN       CLOUDY    52  42  69 NW17      29.64R
BUFFALO WY     CLOUDY    50  42  74 NW15G25   29.64R
CODY           CLOUDY    42  40  92 N7        29.67R
YELLOWSTONE LA   N/A     32  31  96 W9G20     29.75S WCI  24
IDAHO FALLS    CLOUDY    42  38  85 SW16      29.82R
SALMON         LGT RAIN  42  38  85 SE6       29.79R
BOISE          CLOUDY    48  40  73 CALM      29.87R
SPOKANE        LGT RAIN  45  44  97 SW12      29.70S
$$

REGIONAL REPORTS...ALBERTA

CITY           SKY/WX    TMP DP  RH WIND       PRES   REMARKS
EDMONTON       CLOUDY    43  43 100 W6        29.40F
CALGARY        PTCLDY    36  30  80 SW7       29.56S WCI  30
LETHBRIDGE     PTCLDY    34  30  86 S7        29.61R WCI  28
MEDICINE HAT   MOCLDY    37  36  93 SW7       29.57R
$$

REGIONAL REPORTS...SASKATCHEWAN

CITY           SKY/WX    TMP DP  RH WIND       PRES   REMARKS
SWIFT CURRENT  MOCLDY    46  43  87 W9        29.47F
REGINA         LGT RAIN  54  48  82 SE14      29.47F
SASKATOON      LGT RAIN  54  52  94 SE15G23   29.47F
$$




USA.gov is the U.S. government's official web portal to all federal, state and local government web resources and services.